Regional Weather Roundup
Issued by NWS Kansas City/Pleasant Hill, MO

Home | Current Version | Previous Version | Graphics & Text | Print | Product List | Glossary Off
Versions: 1 2 3 4 5 6 7 8 9 10 11 12 13 14 15 16 17 18 19 20 21 22 23 24 25 26 27 28

000
ASUS43 KEAX 240810
RWREAX

WEATHER ROUNDUP FOR EASTERN KANSAS AND NORTHWEST MISSOURI
NATIONAL WEATHER SERVICE KANSAS CITY/PLEASANT HILL MO
300 AM CDT SUN JUL 24 2016

KSZ040-057-103>105-MOZ028-029-037-043-240900-
...KANSAS CITY METROPOLITAN AREA...

CITY           SKY/WX    TMP DP  RH WIND       PRES   REMARKS
K.C. INTL      PTCLDY    82  71  69 S9        29.87S
K.C. DOWNTOWN  CLEAR     85  71  63 S7        29.85F HX  90
LEES SUMMIT    CLEAR     84  73  69 S9        29.89S HX  90
OLATHE - IXD   CLEAR     78  72  81 S8        29.88F
OLATHE - OJC   CLEAR     78  72  81 S6        29.88F
LAWRENCE       CLEAR     78  71  79 SE6       29.86F

$$

MOZ001>008-011>017-020>025-030>033-038>040-044>046-053-054-240900-
...NORTHERN AND CENTRAL MISSOURI...

CITY           SKY/WX    TMP DP  RH WIND       PRES   REMARKS
ST. JOSEPH     CLOUDY    82  71  69 SW7       29.85S
MOSBY          CLOUDY    79  73  83 SE6       29.87S
WHITEMAN AFB   CLOUDY    81  81 100 S6        29.88F HX  92
CLINTON        CLEAR     79  75  89 CALM      29.91R
SEDALIA        CLOUDY    81  76  84 S7        29.91F
WARSAW         NOT AVBL
CHILLICOTHE      N/A     80  75  84 CALM      29.87F
KIRKSVILLE     CLEAR     77  74  90 S7        29.90F

$$

MOZ041-047>049-056>058-063>065-088>090-097-240900-
...EASTERN AND SOUTHERN MISSOURI...

CITY           SKY/WX    TMP DP  RH WIND       PRES   REMARKS
ST. LOUIS INTL PTCLDY    83  74  74 S3        29.93F
SPIRIT OF STL  CLEAR     79  76  90 S3        29.91F
COLUMBIA       CLEAR     79  76  90 S8        29.93R
JEFFERSON CITY CLEAR     81  75  82 CALM      29.91F
ROLLA          CLEAR     79  73  82 S10       29.94F
OSAGE BEACH    CLEAR     78  73  84 SE6       29.94S
SPRINGFIELD    CLEAR     80  74  81 S12       29.95S
BRANSON        PTCLDY    75  73  94 CALM      29.97F
JOPLIN         CLEAR     80  72  76 S8        29.92F
WEST PLAINS    CLEAR     75  69  81 CALM      29.98F

$$

IAZ060-094-KSZ022-034>040-054-083-096-NEZ052-066-093-240900-
...KANSAS...SOUTHEAST NEBRASKA AND IOWA...

CITY           SKY/WX    TMP DP  RH WIND       PRES   REMARKS
TOPEKA         PTCLDY    84  69  60 S5        29.85S
MANHATTAN      CLOUDY    85  68  56 SW9       29.84F
EMPORIA        PTCLDY    80  70  71 S10       29.87F
CHANUTE        CLEAR     78  71  79 S8        29.89S
WICHITA        PTCLDY    79  67  66 S7        29.89S
OMAHA          CLEAR     80  74  81 S7        29.83S
LINCOLN        CLEAR     77  72  84 S5        29.85S
FALLS CITY     CLOUDY    81  71  71 S9        29.82F
LAMONI         CLEAR     78  75  90 S9        29.86S
DES MOINES     MOCLDY    81  76  84 S6        29.82F

$$





USA.gov is the U.S. government's official web portal to all federal, state and local government web resources and services.